Torna al catalogo

STARLINK-37242

AttivoComunicazioniSSO
NORAD 68728·PAYLOAD·🇺🇸 United States

Lanciato Apr 15, 2026 da Vandenberg Space Force Base

Loading…

Prossimi Passaggi (prossime 24 ore)

TLE

AggiornatoSource: CelesTrak SupGP

Epoca: Sep 15, 2026, 03:26 UTC

1 68728C 26082A   26258.14354167 -.00002963  00000+0 -91964-4 0  2585
2 68728  97.2847 120.3611 0002163  92.5497 282.4579 15.33445173    16

Traccia STARLINK-37242 in tempo reale con AllMySat

Download on the App Store